Location: Ravensburg
(47.7866°N, 9.6124°E)
Time: 23:28:20
(UTC+02:00)

AO-85 - Pass Details

Date: 11 March 2026
Orbit: 507 x 686 km, 64.8° (Epoch: 11 April)

Event Time Altitude Azimuth Distance (km) Brightness Sun altitude
Exits shadow 04:24:27 - 161° (SSE) 2,552 ? -23.7°
Reaches altitude 10° 04:27:29 10° 131° (SE) 1,799 ? -23.2°
Maximum altitude 04:28:53 12° 111° (ESE) 1,686 ? -23.0°
Drops below altitude 10° 04:30:16 10° 90° (E) 1,776 ? -22.8°
Sets 04:33:45 0° 57° (ENE) 2,643 ? -22.2°
